Weather in Niort

France     46°19′36″N   0°27′29″E
temp.,
°C
wind,
m/s
gust,
m/s
humid.,
%
clouds,
%
prec.,
mm/h
press.,
hPa
HPBL,
m
11 april, sun
sun1123:00+10sw2294100 0.0 101028
02:00+10wsw2499100 1.9 1009165
05:00+8nnw5796100 4.3 1010414
08:00+7nnw4894100 4.6 1013481
11:00+9nnw467830 0.1 1015998
14:00+10n346197 0.3 10171086
17:00+10nnw3376100 1.3 10181156
20:00+6nne5693100 4.1 1020751
12 april, mon
mon1223:00+6n3692100 1.7 1024806
02:00+3nnw36945 2.0 1026129
05:00+1n410925 0.0 1028202
08:000nne38910 0.0 1030155
11:00+7ne34700 0.0 1031663
14:00+10n34495 0.0 10311757
17:00+11n45476 0.0 10301929
20:00+9n346845 0.0 103068
13 april, tue
tue1323:00+4nne35761 0.0 103279
02:00+3ne38821 0.0 1033129
05:00+1ne34920 0.0 103260
08:00+1ene35904 0.0 103292
11:00+8ene45675 0.0 1033713
14:00+11ne66605 0.0 10321338
17:00+11ne675641 0.0 10301253
20:00+8ne486870 0.0 1029243
14 april, wed
wed1423:00+4ene41072100 0.0 1030173
02:00+3ene51364100 0.0 1030306
05:00+2ene51365100 0.0 1029304
08:00+2ene51365100 0.0 1029333
11:00+8ene712545 0.0 1029899
14:00+11ene810465 0.0 10271413
17:00+12ene810495 0.0 10261565
20:00+9ene612601 0.0 1026504
15 april, thu
thu1523:00+6ene515630 0.0 1027382
02:00+4ene514660 0.0 1027329
05:00+2ne513750 0.0 1026262
08:00+1ne411830 0.0 1027251
11:00+8ene69590 0.0 1027748
14:00+12ene79475 0.0 10251717
17:00+12ne89455 0.0 10232051
20:00+9ne611602 0.0 1023434